Date,TemperatureHighF,TemperatureAvgF,TemperatureLowF,DewpointHighF,DewpointAvgF,DewpointLowF,HumidityHigh,HumidityAvg,HumidityLow,PressureMaxIn,PressureMinIn,WindSpeedMaxMPH,WindSpeedAvgMPH,GustSpeedMaxMPH,PrecipitationSumIn
2013-5-1,71.1,54.5,40.5,43.0,35.0,25.0,81,51,25,30.49,30.34,8,0,0,0.00
2013-5-2,78.7,59.6,43.4,45.0,39.6,36.0,85,53,22,30.47,30.30,7,0,0,0.00
2013-5-3,68.1,55.2,46.2,42.0,37.0,33.0,86,53,29,30.46,30.34,11,2,0,0.00
2013-5-4,72.0,54.0,40.7,45.0,41.1,36.0,91,66,31,30.38,30.22,9,1,0,0.00
2013-5-5,68.5,49.2,36.1,42.0,37.7,34.0,92,69,33,30.30,30.21,8,0,0,0.00
2013-5-6,72.4,54.4,40.9,50.0,44.5,38.0,93,73,41,30.29,30.15,6,0,0,0.00
2013-5-7,76.2,60.5,45.4,57.0,50.0,43.0,92,71,38,30.18,30.09,6,0,0,0.00
2013-5-8,67.9,59.6,55.1,61.0,56.9,53.0,94,91,76,30.14,30.00,4,0,0,0.32
2013-5-9,61.6,56.3,51.3,58.0,54.4,50.0,94,93,87,30.03,29.88,1,0,0,1.27
2013-5-10,78.9,64.1,51.7,60.0,53.8,50.0,94,73,40,29.99,29.89,7,0,0,0.01
2013-5-11,63.4,60.2,57.4,61.0,57.9,54.0,94,92,80,29.89,29.69,9,1,0,0.35
2013-5-12,67.4,58.2,47.3,57.0,44.8,25.0,94,66,28,29.87,29.63,11,2,0,0.05
2013-5-13,53.2,46.3,39.9,31.0,28.8,25.0,66,52,36,30.08,29.87,14,2,0,0.00
2013-5-14,56.7,47.0,37.1,31.0,28.2,25.0,73,51,31,30.10,30.02,11,2,0,0.00
2013-5-15,62.7,49.2,34.4,52.0,41.5,30.0,91,76,46,30.09,29.70,10,0,0,0.01
2013-5-16,80.9,65.6,50.5,53.0,44.7,35.0,94,55,21,29.81,29.70,11,1,0,0.01
2013-5-17,67.9,59.4,52.1,43.0,38.9,36.0,65,48,34,30.20,29.82,13,3,0,0.00
2013-5-18,71.5,56.8,44.9,49.0,43.7,37.0,88,63,41,30.31,30.21,6,0,0,0.00
2013-5-19,56.7,54.0,50.4,54.0,51.7,47.0,94,91,87,30.34,30.19,2,0,0,0.15
2013-5-20,80.5,65.7,55.0,66.0,60.0,53.0,94,83,57,30.19,29.95,5,0,0,0.01
2013-5-21,88.9,73.1,60.7,69.0,65.2,59.0,94,78,50,29.97,29.81,5,0,0,0.00
2013-5-22,78.0,64.6,54.8,69.0,61.0,53.0,94,88,73,29.92,29.83,6,0,0,0.43
2013-5-23,70.4,65.7,63.4,67.0,63.7,62.0,94,93,87,29.89,29.76,4,0,0,2.78
2013-5-24,63.6,55.5,43.9,62.0,52.9,41.0,94,91,80,29.88,29.65,18,3,0,0.27
2013-5-25,46.0,43.5,42.4,43.0,40.8,39.0,93,89,84,29.91,29.81,14,5,0,0.59
2013-5-26,58.8,49.9,42.6,41.0,38.7,37.0,87,67,46,30.17,29.86,21,6,0,0.01
2013-5-27,71.5,57.5,43.4,45.0,38.9,35.0,79,54,28,30.22,30.11,12,1,0,0.00
2013-5-28,71.5,56.8,45.8,55.0,47.5,40.0,94,74,40,30.22,30.14,1,0,0,0.09
2013-5-29,79.6,65.9,55.9,70.0,61.3,54.0,94,86,67,30.16,29.99,7,0,0,0.06
2013-5-30,89.5,75.7,61.7,69.0,64.7,60.0,94,72,44,30.11,30.03,6,0,0,0.00
2013-5-31,92.3,77.7,65.4,70.0,65.0,61.0,93,68,36,30.10,29.97,9,0,0,0.00